User: anonymous   Login
Location: Unspecified
(0.0000°N, 0.0000°E)
Time: 09:24:28
(UTC+00:00)
Language:

TOPSAT - Orbit

View from above orbital plane
View from above orbital plane
View from above satellite
View from above satellite

Ground track
Ground track

The orbit data is extracted from the following two-line orbital elements,

1 28891U 05043B   18023.88738061 +.00000009 +00000-0 +10751-4 0  9992
2 28891 097.9116 174.4401 0016884 175.7203 184.4152 14.61312039652587
Epoch (UTC): 23 January 2018 21:17:49
Eccentricity: 0.0016884
inclination: 97.9116°
perigee height: 677 km
apogee height: 701 km
right ascension of ascending node: 174.4401°
argument of perigee: 175.7203°
revolutions per day: 14.61312039
mean anomaly at epoch: 184.4152°
orbit number at epoch: 65258

The dashed part of the orbit path shows where the satellite is in the earth's shadow,  

DLR